EW2785 Weather Reports


Display with metric or nautical units.
time (UTC)temp
F
wind
direction
speed
MPH
gust
MPH
rain 1hr
in
rain 24hr
in
rain mn
in
humidity
%
barometer
mb
20260505163053 77 95 3.0 11.0 0.00 0.00 0.00 44 1003.8
20260505161553 76 117 4.0 14.0 0.00 0.00 0.00 46 1004.1
20260505153045 70 82 2.0 13.0 0.00 0.00 0.00 52 1004.5
20260505151536 69 123 3.0 12.0 0.00 0.00 0.00 55 1005.0
20260505124521 65 80 1.0 4.0 0.00 0.00 0.00 61 1006.0
20260505123017 64 126 0.0 3.0 0.00 0.00 0.00 61 1005.9
20260505121513 63 72 3.0 7.0 0.00 0.00 0.00 63 1005.9
20260505120009 59 134 1.0 4.0 0.00 0.00 0.00 72 1006.1
20260505114506 54 180 0.0 1.0 0.00 0.00 0.00 82 1006.1
20260505113059 52 149 0.0 1.0 0.00 0.00 0.00 87 1006.0
20260505111556 51 150 0.0 0.0 0.00 0.00 0.00 88 1006.2
20260505110104 50 150 0.0 0.0 0.00 0.00 0.00 87 1006.4
20260505101546 48 140 0.0 0.0 0.00 0.00 0.00 88 1005.8
20260505100047 47 140 0.0 1.0 0.00 0.00 0.00 88 1005.7
20260505094543 47 140 0.0 0.0 0.00 0.00 0.00 88 1005.7
20260505093041 46 213 0.0 1.0 0.00 0.00 0.00 88 1005.9
20260505091540 46 214 0.0 2.0 0.00 0.00 0.00 88 1005.8
20260505090041 45 209 0.0 3.0 0.00 0.00 0.00 88 1005.9
20260505084546 45 233 0.0 2.0 0.00 0.00 0.00 88 1006.0
20260505083038 44 287 0.0 2.0 0.00 0.00 0.00 88 1006.0
20260505081538 44 287 0.0 1.0 0.00 0.00 0.00 88 1006.1
20260505080038 44 287 0.0 2.0 0.00 0.00 0.00 87 1005.8
20260505074538 44 282 1.0 3.0 0.00 0.00 0.00 87 1006.0
20260505073042 44 288 0.0 2.0 0.00 0.00 0.00 87 1005.9
20260505071534 44 288 0.0 2.0 0.00 0.00 0.00 88 1006.1
20260505070040 44 295 0.0 4.0 0.00 0.00 0.00 88 1006.2
20260505064533 43 348 0.0 2.0 0.00 0.00 0.00 87 1006.2
20260505063030 43 35 0.0 3.0 0.00 0.00 0.00 87 1006.2
20260505061537 43 275 0.0 2.0 0.00 0.00 0.00 87 1006.2
20260505060027 43 250 0.0 3.0 0.00 0.00 0.00 86 1006.3
20260505054533 44 194 0.0 2.0 0.00 0.00 0.00 85 1006.3
20260505053022 44 188 0.0 1.0 0.00 0.00 0.00 85 1006.3
20260505051524 44 188 0.0 0.0 0.00 0.00 0.00 84 1006.5
20260505041526 46 188 0.0 1.0 0.00 0.00 0.00 80 1006.3
20260505040010 47 188 0.0 1.0 0.00 0.00 0.00 79 1006.2
20260505034519 48 188 0.0 1.0 0.00 0.00 0.00 78 1006.2
20260505033010 49 188 0.0 0.0 0.00 0.00 0.00 76 1006.2
20260505031523 50 188 0.0 0.0 0.00 0.00 0.00 74 1006.1
20260505030009 50 188 0.0 0.0 0.00 0.00 0.00 72 1006.1
20260505024509 52 188 0.0 0.0 0.00 0.00 0.00 71 1006.4
20260505023010 53 188 0.0 0.0 0.00 0.00 0.00 69 1006.4
20260505021509 54 188 0.0 0.0 0.00 0.00 0.00 67 1006.3
20260505020007 55 188 0.0 0.0 0.00 0.00 0.00 66 1006.2
20260505014507 56 188 0.0 0.0 0.00 0.00 0.00 64 1006.1
20260505013006 58 188 0.0 1.0 0.00 0.00 0.00 61 1006.1
20260505011505 59 188 0.0 0.0 0.00 0.00 0.00 57 1006.0
20260505010005 61 188 0.0 0.0 0.00 0.00 0.00 55 1005.9
20260505004505 62 188 0.0 0.0 0.00 0.00 0.00 51 1005.9
20260505003004 63 188 0.0 1.0 0.00 0.00 0.00 47 1005.8
20260505001504 64 188 0.0 0.0 0.00 0.00 0.00 45 1005.6
20260505000006 65 188 0.0 1.0 0.00 0.00 0.00 43 1005.5
20260504234503 66 186 0.0 2.0 0.00 0.00 0.00 43 1005.3
20260504233002 67 190 0.0 4.0 0.00 0.00 0.00 41 1005.2
20260504231502 67 188 0.0 8.0 0.00 0.00 0.00 40 1004.9
20260504230002 68 180 3.0 13.0 0.00 0.00 0.00 37 1004.7
20260504224501 68 190 4.0 11.0 0.00 0.00 0.00 36 1004.6
20260504223134 68 176 1.0 12.0 0.00 0.00 0.00 37 1004.5
20260504221559 68 200 1.0 10.0 0.00 0.00 0.00 36 1004.5
20260504220059 69 192 3.0 8.0 0.00 0.00 0.00 37 1004.6
20260504214559 69 208 2.0 10.0 0.00 0.00 0.00 37 1004.6
20260504213105 69 192 2.0 12.0 0.00 0.00 0.00 37 1004.5
20260504211600 70 170 5.0 12.0 0.00 0.00 0.00 37 1004.5
20260504210059 71 183 4.0 12.0 0.00 0.00 0.00 36 1004.6
20260504204555 70 180 2.0 16.0 0.00 0.00 0.00 38 1004.8
20260504203106 69 177 7.0 22.0 0.00 0.00 0.00 38 1004.9
20260504201556 68 210 4.0 14.0 0.00 0.00 0.00 40 1005.1
20260504200054 69 156 4.0 15.0 0.00 0.00 0.00 38 1005.1
20260504194550 70 148 6.0 16.0 0.00 0.00 0.00 38 1005.6
20260504193048 70 198 4.0 15.0 0.00 0.00 0.00 39 1005.4
20260504191554 69 166 3.0 14.0 0.00 0.00 0.00 43 1005.6
20260504190046 68 157 4.0 21.0 0.00 0.00 0.00 41 1005.7
20260504184538 67 178 4.0 14.0 0.00 0.00 0.00 43 1005.8
20260504183037 66 209 3.0 15.0 0.00 0.00 0.00 43 1005.9
20260504181542 66 133 1.0 11.0 0.00 0.00 0.00 44 1006.1
20260504180032 65 146 4.0 13.0 0.00 0.00 0.00 46 1006.0
20260504174530 64 136 3.0 15.0 0.00 0.00 0.00 45 1006.1
20260504173026 63 156 3.0 20.0 0.00 0.00 0.00 47 1006.3
20260504171524 62 197 5.0 16.0 0.00 0.00 0.00 45 1006.6